User: anonymous   Login
Location: Caltech
(34.1382°N, 118.1253°W)
Time: 07:04:18
(UTC-07:00)
Language:

Gbstr 26 Del rocket - Orbit

View from above orbital plane
View from above orbital plane
View from above satellite
View from above satellite

Ground track
Ground track

The orbit data is extracted from the following two-line orbital elements,

1 25876U 99041E   18171.82119328 -.00000209 +00000-0 +60097-5 0  9992
2 25876 051.7648 302.3085 0531386 022.5969 339.7447 14.04220960966399
Epoch (UTC): 20 June 2018 19:42:31
Eccentricity: 0.0531386
inclination: 51.7648°
perigee height: 493 km
apogee height: 1265 km
right ascension of ascending node: 302.3085°
argument of perigee: 22.5969°
revolutions per day: 14.04220960
mean anomaly at epoch: 339.7447°
orbit number at epoch: 96639

The dashed part of the orbit path shows where the satellite is in the earth's shadow,  

DLR